Fort Knox, KY

2:58 AM EDT on August 17, 2017 (GMT -0400)
Godman Army Air Field

Weather History for KFTK - March, 2012

Change the Weather History Date:

Friday, March 9, 2012

  Actual Average Record
Temperature  
Mean Temperature 42 °F -  
Max Temperature 54 °F 49 °F 73 °F (2007)
Min Temperature 31 °F 30 °F 11 °F (2008)
Degree Days  
Heating Degree Days 22    
Moisture  
Dew Point 29 °F    
Average Humidity 63    
Maximum Humidity 99    
Minimum Humidity 34    
Precipitation  
Precipitation 0.00 in - - ()
Sea Level Pressure  
Sea Level Pressure 30.42 in    
Wind  
Wind Speed 7 mph (NW)    
Max Wind Speed 21 mph    
Max Gust Speed 29 mph    
Visibility 10 miles    
Events      
Averages and records for this station are not official NWS values.
T = Trace of Precipitation, MM = Missing Value Source: NWS Daily Summary

Daily Weather History Graph

Daily Weather History Graph

Search for Another Location

Airport or City:

Trip Planner

Search our weather history database for the weather conditions in past years. The results will help you decide how hot, cold, wet, or windy it might be!

Date:

Astronomy

Mar. 09, 2012 Rise Set
Actual Time 7:03 AM EST 6:45 PM EST
Civil Twilight 6:37 AM EST 7:12 PM EST
Nautical Twilight 6:06 AM EST 7:42 PM EST
Astronomical Twilight 5:36 AM EST 8:13 PM EST
Moon 8:41 PM EST (3/9) 7:23 AM EST (3/9)
Length of Visible Light 12h 35m
Length of Day
11h 42m
Full, 98% of the Moon is Illuminated
Mar 9
Full
Mar 14
Last Quarter
Mar 22
New
Mar 30
First Quarter
Apr 6
Full

Hourly Weather History & Observations

Time (EST) Temp. Windchill Dew Point Humidity Pressure Visibility Wind Dir Wind Speed Gust Speed Precip Events Conditions
12:55 AM 37.2 °F 33.6 °F 35.2 °F 93% 30.34 in 10.0 mi NW 4.6 mph - N/A   Mostly Cloudy
1:55 AM 36.1 °F 31.4 °F 33.8 °F 91% 30.36 in 10.0 mi NNW 5.8 mph - N/A   Mostly Cloudy
2:55 AM 35.6 °F 32.8 °F 32.2 °F 87% 30.37 in 10.0 mi WNW 3.5 mph - N/A   Mostly Cloudy
3:55 AM 33.6 °F - 33.4 °F 99% 30.38 in 10.0 mi Calm Calm - N/A   Mostly Cloudy
4:55 AM 31.6 °F 27.0 °F 31.5 °F 99% 30.38 in 10.0 mi WNW 4.6 mph - N/A   Mostly Cloudy
5:55 AM 34.0 °F 31.0 °F 31.1 °F 89% 30.39 in 10.0 mi NW 3.5 mph - N/A   Mostly Cloudy
6:55 AM 32.7 °F - 31.1 °F 94% 30.41 in 10.0 mi Calm Calm - N/A   Scattered Clouds
7:55 AM 32.9 °F 27.5 °F 29.5 °F 87% 30.42 in 10.0 mi West 5.8 mph - N/A   Clear
8:55 AM 38.5 °F 34.1 °F 32.2 °F 78% 30.43 in 10.0 mi West 5.8 mph - N/A   Clear
9:55 AM 45.5 °F 39.9 °F 33.6 °F 63% 30.43 in 10.0 mi WNW 11.5 mph - N/A   Clear
10:55 AM 49.5 °F - 32.4 °F 52% 30.43 in 10.0 mi WNW 15.0 mph - N/A   Clear
11:55 AM 50.9 °F - 33.4 °F 51% 30.45 in 10.0 mi WNW 20.7 mph 28.8 mph N/A   Clear
12:55 PM 52.0 °F - 27.9 °F 39% 30.44 in 10.0 mi WNW 16.1 mph - N/A   Clear
1:55 PM 53.4 °F - 25.3 °F 34% 30.42 in 10.0 mi WNW 15.0 mph 20.7 mph N/A   Clear
2:55 PM 54.1 °F - 26.6 °F 35% 30.40 in 10.0 mi NNW 9.2 mph 19.6 mph N/A   Clear
3:55 PM 52.9 °F - 25.2 °F 34% 30.41 in 10.0 mi North 13.8 mph - N/A   Clear
4:55 PM 51.4 °F - 25.0 °F 36% 30.42 in 10.0 mi NNW 12.7 mph - N/A   Clear
5:55 PM 49.1 °F - 24.4 °F 38% 30.43 in 10.0 mi NW 9.2 mph - N/A   Clear
6:55 PM 45.3 °F 41.1 °F 25.3 °F 46% 30.44 in 10.0 mi NNW 8.1 mph - N/A   Clear
7:55 PM 41.4 °F 37.6 °F 28.2 °F 60% 30.46 in 10.0 mi NNW 5.8 mph - N/A   Clear
8:55 PM 42.3 °F 39.4 °F 23.4 °F 47% 30.48 in 10.0 mi NNE 4.6 mph - N/A   Clear
9:55 PM 39.7 °F 36.5 °F 24.1 °F 54% 30.48 in 10.0 mi NE 4.6 mph - N/A   Clear
10:55 PM 37.4 °F 32.8 °F 24.1 °F 59% 30.49 in 10.0 mi NNE 5.8 mph - N/A   Clear
11:55 PM 37.6 °F 34.0 °F 22.6 °F 55% 30.49 in 10.0 mi NNE 4.6 mph - N/A   Clear